Buffalo, SD

9:28 PM MST on February 19, 2018 (GMT -0700)
Buffalo

Weather History for K2WX - December, 2013

Change the Weather History Date:

Wednesday, December 4, 2013

  Actual Average Record
Temperature  
Mean Temperature -1 °F 23 °F  
Max Temperature 5 °F 33 °F 55 °F (2007)
Min Temperature -7 °F 13 °F -7 °F (2013)
Degree Days  
Heating Degree Days 66 42  
Month to date heating degree days 172 166  
Since 1 July heating degree days 1962 2064  
Cooling Degree Days 0 0  
Month to date cooling degree days 0 0  
Year to date cooling degree days 587 513  
Moisture  
Dew Point -5 °F    
Average Humidity 79    
Maximum Humidity 87    
Minimum Humidity 71    
Precipitation  
Precipitation 0.03 in 0.00 in 0.05 in (2001)
Month to date precipitation 0.46 0.02  
Year to date precipitation 12.61 14.25  
Sea Level Pressure  
Sea Level Pressure 30.12 in    
Wind  
Wind Speed 27 mph (NW)    
Max Wind Speed 39 mph    
Max Gust Speed 44 mph    
T = Trace of Precipitation, MM = Missing Value Source: NWS Daily Summary

Daily Weather History Graph

Daily Weather History Graph

Search for Another Location

Airport or City:

Trip Planner

Search our weather history database for the weather conditions in past years. The results will help you decide how hot, cold, wet, or windy it might be!

Date:

Astronomy

Dec. 04, 2013 Rise Set
Actual Time 7:17 AM MST 4:11 PM MST
Civil Twilight 6:43 AM MST 4:44 PM MST
Nautical Twilight 6:06 AM MST 5:21 PM MST
Astronomical Twilight 5:30 AM MST 5:57 PM MST
Moon 8:45 AM MST (12/4) 6:26 PM MST (12/4)
Length of Visible Light 10h 00m
Length of Day
8h 53m
Waxing Crescent, 5% of the Moon is Illuminated
Dec 4
Waxing Crescent
Dec 9
First Quarter
Dec 17
Full
Dec 25
Last Quarter
Jan 1
New

Hourly Weather History & Observations

Time (MST) Temp. Windchill Dew Point Humidity Pressure Visibility Wind Dir Wind Speed Gust Speed Precip Events Conditions
12:56 AM 5.0 °F -14.2 °F -0.0 °F 80% 30.05 in - NNW 17.3 mph - N/A   Unknown
1:56 AM 3.9 °F -16.1 °F -0.9 °F 80% 30.03 in - NNW 18.4 mph - 0.01 in   Unknown
2:56 AM 5.0 °F -15.2 °F -0.9 °F 76% 30.06 in - NW 19.6 mph - N/A   Unknown
3:56 AM 3.9 °F -19.4 °F -0.9 °F 80% 30.02 in - NNW 26.5 mph - N/A   Unknown
4:56 AM 3.0 °F -22.4 °F -2.0 °F 80% 30.01 in - NW 32.2 mph 42.6 mph N/A   Unknown
5:56 AM 3.0 °F -23.4 °F -2.0 °F 80% 30.01 in - NW 35.7 mph 42.6 mph N/A   Unknown
6:56 AM 1.9 °F -24.3 °F -2.9 °F 80% 30.04 in - NW 33.4 mph - N/A   Unknown
7:56 AM 1.9 °F -23.6 °F -2.9 °F 80% 30.08 in - NW 31.1 mph - N/A   Unknown
8:56 AM 1.0 °F -24.0 °F -4.0 °F 79% 30.10 in - NW 28.8 mph - 0.01 in   Unknown
9:56 AM 1.9 °F -22.8 °F -4.0 °F 76% 30.11 in - NW 28.8 mph - N/A   Unknown
10:56 AM 3.0 °F -21.4 °F -2.9 °F 76% 30.09 in - NW 28.8 mph - N/A   Unknown
11:56 AM 5.0 °F -20.7 °F -2.0 °F 73% 30.09 in - NW 35.7 mph 41.4 mph N/A   Unknown
12:56 PM 3.9 °F -21.2 °F -2.9 °F 73% 30.10 in - WNW 32.2 mph - N/A   Unknown
1:56 PM 3.9 °F -20.9 °F -2.9 °F 73% 30.11 in - NW 31.1 mph 38.0 mph N/A   Unknown
2:56 PM 1.9 °F -22.0 °F -4.0 °F 76% 30.13 in - WNW 26.5 mph 38.0 mph N/A   Unknown
3:56 PM 1.9 °F -24.6 °F -5.1 °F 72% 30.15 in - WNW 34.5 mph 41.4 mph N/A   Unknown
4:56 PM -0.0 °F -25.9 °F -7.1 °F 72% 30.17 in - WNW 29.9 mph 34.5 mph N/A   Unknown
5:56 PM -2.0 °F -28.6 °F -8.0 °F 76% 30.19 in - WNW 29.9 mph 35.7 mph N/A   Unknown
6:56 PM -2.9 °F -27.2 °F -9.0 °F 75% 30.21 in - WNW 23.0 mph - N/A   Unknown
7:56 PM -2.9 °F -26.1 °F -9.0 °F 75% 30.23 in - WNW 20.7 mph - N/A   Unknown
8:56 PM -4.0 °F -28.6 °F -9.9 °F 76% 30.24 in - WNW 23.0 mph - N/A   Unknown
9:56 PM -4.0 °F -29.1 °F -9.9 °F 76% 30.23 in - WNW 24.2 mph 33.4 mph N/A   Unknown
10:56 PM -5.1 °F -29.0 °F -11.0 °F 76% 30.25 in - WNW 20.7 mph - N/A   Unknown
11:56 PM -6.0 °F -32.2 °F -11.9 °F 75% 30.25 in - WNW 25.3 mph 31.1 mph 0.01 in   Unknown